Time,TemperatureF,DewpointF,PressureIn,WindDirection,WindDirectionDegrees,WindSpeedMPH,WindSpeedGustMPH,Humidity,HourlyPrecipIn,Conditions,Clouds,dailyrainin,SoftwareType,DateUTC
2013-09-01 00:13:00,67.5,67.0,29.79,NE,54,0.0,2.0,98,0.00,,,0.00,weatherlink.com 1.10,2013-09-01 04:13:00,
2013-09-01 00:28:00,67.3,67.0,29.78,NNW,330,0.0,0.0,99,0.00,,,0.00,weatherlink.com 1.10,2013-09-01 04:28:00,
2013-09-01 00:43:00,67.2,67.0,29.78,NNW,327,0.0,0.0,99,0.00,,,0.00,weatherlink.com 1.10,2013-09-01 04:43:00,
2013-09-01 00:58:00,67.3,67.0,29.79,NNE,23,0.0,0.0,99,0.00,,,0.00,weatherlink.com 1.10,2013-09-01 04:58:00,
2013-09-01 01:13:00,67.3,67.0,29.80,West,266,0.0,0.0,99,0.01,,,0.01,weatherlink.com 1.10,2013-09-01 05:13:00,
2013-09-01 01:28:00,67.4,67.0,29.81,North,4,0.0,0.0,99,0.01,,,0.01,weatherlink.com 1.10,2013-09-01 05:28:00,
2013-09-01 01:43:00,67.4,67.0,29.81,NNW,342,0.0,1.0,99,0.01,,,0.01,weatherlink.com 1.10,2013-09-01 05:43:00,
2013-09-01 01:58:00,67.4,67.0,29.80,NNW,342,0.0,0.0,99,0.01,,,0.01,weatherlink.com 1.10,2013-09-01 05:58:00,
2013-09-01 02:13:00,67.2,67.0,29.79,NNW,342,0.0,0.0,99,0.00,,,0.01,weatherlink.com 1.10,2013-09-01 06:13:00,
2013-09-01 02:28:00,67.1,67.0,29.80,ENE,62,0.0,0.0,99,0.00,,,0.01,weatherlink.com 1.10,2013-09-01 06:28:00,
2013-09-01 02:43:00,66.9,67.0,29.79,ESE,116,0.0,0.0,99,0.00,,,0.01,weatherlink.com 1.10,2013-09-01 06:43:00,
2013-09-01 02:58:00,66.9,67.0,29.79,South,177,0.0,0.0,99,0.00,,,0.01,weatherlink.com 1.10,2013-09-01 06:58:00,
2013-09-01 03:13:00,66.9,67.0,29.78,South,177,0.0,0.0,100,0.00,,,0.01,weatherlink.com 1.10,2013-09-01 07:13:00,
2013-09-01 03:28:00,66.9,67.0,29.78,SSE,165,0.0,0.0,100,0.00,,,0.01,weatherlink.com 1.10,2013-09-01 07:28:00,
2013-09-01 03:43:00,66.9,67.0,29.79,North,1,0.0,0.0,100,0.00,,,0.01,weatherlink.com 1.10,2013-09-01 07:43:00,
2013-09-01 03:58:00,66.9,67.0,29.78,NNW,348,0.0,0.0,100,0.00,,,0.01,weatherlink.com 1.10,2013-09-01 07:58:00,
2013-09-01 04:13:00,66.9,67.0,29.77,NW,316,0.0,0.0,100,0.00,,,0.01,weatherlink.com 1.10,2013-09-01 08:13:00,
2013-09-01 04:28:00,66.9,67.0,29.78,North,357,0.0,1.0,100,0.00,,,0.01,weatherlink.com 1.10,2013-09-01 08:28:00,
2013-09-01 04:43:00,66.7,67.0,29.77,North,357,0.0,0.0,100,0.00,,,0.01,weatherlink.com 1.10,2013-09-01 08:43:00,
2013-09-01 04:58:00,66.7,67.0,29.78,NNE,16,0.0,1.0,100,0.00,,,0.01,weatherlink.com 1.10,2013-09-01 08:58:00,
2013-09-01 05:13:00,66.8,67.0,29.78,NNE,16,0.0,0.0,100,0.00,,,0.01,weatherlink.com 1.10,2013-09-01 09:13:00,
2013-09-01 05:28:00,66.7,67.0,29.78,NNE,17,0.0,0.0,100,0.00,,,0.01,weatherlink.com 1.10,2013-09-01 09:28:00,
2013-09-01 05:43:00,66.5,67.0,29.78,NNE,17,0.0,0.0,100,0.00,,,0.01,weatherlink.com 1.10,2013-09-01 09:43:00,
2013-09-01 05:58:00,66.6,67.0,29.78,NNE,18,0.0,0.0,100,0.00,,,0.01,weatherlink.com 1.10,2013-09-01 09:58:00,
2013-09-01 06:13:00,66.7,67.0,29.79,East,101,0.0,0.0,100,0.00,,,0.01,weatherlink.com 1.10,2013-09-01 10:13:00,
2013-09-01 06:28:00,66.9,67.0,29.79,SW,226,0.0,1.0,100,0.00,,,0.01,weatherlink.com 1.10,2013-09-01 10:28:00,
2013-09-01 06:43:00,67.1,67.0,29.79,SSW,203,0.0,1.0,100,0.00,,,0.01,weatherlink.com 1.10,2013-09-01 10:43:00,
2013-09-01 06:58:00,66.9,67.0,29.79,SE,141,0.0,2.0,100,0.00,,,0.01,weatherlink.com 1.10,2013-09-01 10:58:00,
2013-09-01 07:13:00,66.9,67.0,29.79,SE,141,0.0,0.0,100,0.00,,,0.01,weatherlink.com 1.10,2013-09-01 11:13:00,
2013-09-01 07:28:00,66.9,67.0,29.79,SSE,159,0.0,0.0,100,0.00,,,0.01,weatherlink.com 1.10,2013-09-01 11:28:00,
2013-09-01 07:43:00,67.2,67.0,29.79,SSE,166,0.0,2.0,100,0.00,,,0.01,weatherlink.com 1.10,2013-09-01 11:43:00,
2013-09-01 07:58:00,67.3,67.0,29.78,SE,145,0.0,2.0,100,0.00,,,0.01,weatherlink.com 1.10,2013-09-01 11:58:00,
2013-09-01 08:13:00,67.5,68.0,29.79,SW,229,0.0,1.0,100,0.00,,,0.01,weatherlink.com 1.10,2013-09-01 12:13:00,
2013-09-01 08:28:00,67.6,68.0,29.79,SW,216,0.0,1.0,100,0.00,,,0.01,weatherlink.com 1.10,2013-09-01 12:28:00,
2013-09-01 08:43:00,67.9,68.0,29.79,SW,215,0.0,0.0,100,0.00,,,0.01,weatherlink.com 1.10,2013-09-01 12:43:00,
2013-09-01 08:58:00,68.1,68.0,29.80,SSW,210,1.0,2.0,100,0.00,,,0.01,weatherlink.com 1.10,2013-09-01 12:58:00,
2013-09-01 09:13:00,68.4,68.0,29.80,SW,214,2.0,3.0,100,0.00,,,0.01,weatherlink.com 1.10,2013-09-01 13:13:00,
2013-09-01 09:28:00,68.9,69.0,29.80,SSW,201,0.0,1.0,99,0.00,,,0.01,weatherlink.com 1.10,2013-09-01 13:28:00,
2013-09-01 09:43:00,69.4,69.0,29.80,SSW,203,1.0,2.0,99,0.00,,,0.01,weatherlink.com 1.10,2013-09-01 13:43:00,
2013-09-01 09:58:00,70.2,70.0,29.80,SW,217,0.0,5.0,98,0.00,,,0.01,weatherlink.com 1.10,2013-09-01 13:58:00,
2013-09-01 10:13:00,71.4,70.0,29.80,SW,224,1.0,4.0,95,0.00,,,0.01,weatherlink.com 1.10,2013-09-01 14:13:00,
2013-09-01 10:29:00,72.7,71.0,29.81,SE,139,0.0,3.0,95,0.00,,,0.01,weatherlink.com 1.10,2013-09-01 14:29:00,
2013-09-01 10:44:00,73.0,71.0,29.81,SSW,208,0.0,5.0,92,0.00,,,0.01,weatherlink.com 1.10,2013-09-01 14:44:00,
2013-09-01 10:59:00,73.5,71.0,29.82,South,190,1.0,4.0,92,0.00,,,0.01,weatherlink.com 1.10,2013-09-01 14:59:00,
2013-09-01 11:14:00,74.4,71.0,29.81,WSW,239,1.0,6.0,89,0.00,,,0.01,weatherlink.com 1.10,2013-09-01 15:14:00,
2013-09-01 11:29:00,75.7,72.0,29.81,SW,225,0.0,4.0,89,0.00,,,0.01,weatherlink.com 1.10,2013-09-01 15:29:00,
2013-09-01 11:44:00,76.1,72.0,29.81,SSW,212,1.0,4.0,86,0.00,,,0.01,weatherlink.com 1.10,2013-09-01 15:44:00,
2013-09-01 11:59:00,77.2,72.0,29.81,ENE,67,0.0,3.0,84,0.00,,,0.01,weatherlink.com 1.10,2013-09-01 15:59:00,
2013-09-01 12:14:00,77.6,73.0,29.80,SE,141,1.0,4.0,85,0.00,,,0.01,weatherlink.com 1.10,2013-09-01 16:14:00,
2013-09-01 12:29:00,78.8,73.0,29.79,SSW,207,0.0,6.0,81,0.00,,,0.01,weatherlink.com 1.10,2013-09-01 16:29:00,
2013-09-01 12:44:00,79.9,74.0,29.80,SSE,148,1.0,3.0,81,0.00,,,0.01,weatherlink.com 1.10,2013-09-01 16:44:00,
2013-09-01 12:59:00,80.7,74.0,29.80,SW,221,5.0,7.0,81,0.00,,,0.01,weatherlink.com 1.10,2013-09-01 16:59:00,
2013-09-01 13:14:00,81.4,74.0,29.80,SE,133,2.0,6.0,79,0.00,,,0.01,weatherlink.com 1.10,2013-09-01 17:14:00,
2013-09-01 13:29:00,81.7,73.0,29.79,SSW,208,4.0,6.0,75,0.00,,,0.01,weatherlink.com 1.10,2013-09-01 17:29:00,
2013-09-01 13:44:00,83.0,75.0,29.80,SSW,205,2.0,8.0,77,0.00,,,0.01,weatherlink.com 1.10,2013-09-01 17:44:00,
2013-09-01 13:59:00,83.9,74.0,29.79,South,174,1.0,5.0,73,0.00,,,0.01,weatherlink.com 1.10,2013-09-01 17:59:00,
2013-09-01 14:14:00,84.1,74.0,29.77,South,172,0.0,4.0,72,0.00,,,0.01,weatherlink.com 1.10,2013-09-01 18:14:00,
2013-09-01 14:29:00,84.8,75.0,29.78,SSE,148,1.0,5.0,72,0.00,,,0.01,weatherlink.com 1.10,2013-09-01 18:29:00,
2013-09-01 14:44:00,84.0,74.0,29.78,SSW,209,0.0,6.0,71,0.00,,,0.01,weatherlink.com 1.10,2013-09-01 18:44:00,
2013-09-01 14:59:00,85.4,75.0,29.77,SW,221,1.0,5.0,70,0.00,,,0.01,weatherlink.com 1.10,2013-09-01 18:59:00,
2013-09-01 15:14:00,85.8,75.0,29.77,ENE,70,1.0,6.0,69,0.00,,,0.01,weatherlink.com 1.10,2013-09-01 19:14:00,
2013-09-01 15:29:00,85.4,75.0,29.77,ESE,108,1.0,4.0,71,0.00,,,0.01,weatherlink.com 1.10,2013-09-01 19:29:00,
2013-09-01 15:44:00,84.6,75.0,29.76,SE,129,0.0,6.0,72,0.00,,,0.01,weatherlink.com 1.10,2013-09-01 19:44:00,
2013-09-01 15:59:00,85.1,73.0,29.76,SSW,203,2.0,4.0,68,0.00,,,0.01,weatherlink.com 1.10,2013-09-01 19:59:00,
2013-09-01 16:14:00,85.6,74.0,29.76,ENE,75,0.0,5.0,68,0.00,,,0.01,weatherlink.com 1.10,2013-09-01 20:14:00,
2013-09-01 16:29:00,85.4,74.0,29.75,SSE,167,1.0,4.0,68,0.00,,,0.01,weatherlink.com 1.10,2013-09-01 20:29:00,
2013-09-01 16:44:00,85.7,74.0,29.74,SSW,205,2.0,4.0,69,0.00,,,0.01,weatherlink.com 1.10,2013-09-01 20:44:00,
2013-09-01 16:59:00,85.6,74.0,29.73,SSW,197,0.0,5.0,69,0.00,,,0.01,weatherlink.com 1.10,2013-09-01 20:59:00,
2013-09-01 17:14:00,85.2,74.0,29.74,SSW,198,4.0,6.0,68,0.00,,,0.01,weatherlink.com 1.10,2013-09-01 21:14:00,
2013-09-01 17:29:00,85.1,74.0,29.74,West,276,1.0,5.0,70,0.00,,,0.01,weatherlink.com 1.10,2013-09-01 21:29:00,
2013-09-01 17:44:00,83.9,74.0,29.74,SSW,198,2.0,6.0,73,0.00,,,0.01,weatherlink.com 1.10,2013-09-01 21:44:00,
2013-09-01 17:59:00,83.2,75.0,29.74,SSW,212,2.0,5.0,75,0.00,,,0.01,weatherlink.com 1.10,2013-09-01 21:59:00,
2013-09-01 18:15:00,83.2,75.0,29.74,SSW,197,1.0,3.0,75,0.00,,,0.01,weatherlink.com 1.10,2013-09-01 22:15:00,
2013-09-01 18:30:00,83.1,75.0,29.75,SW,221,0.0,5.0,77,0.00,,,0.01,weatherlink.com 1.10,2013-09-01 22:30:00,
2013-09-01 18:45:00,82.4,75.0,29.75,SSW,204,0.0,5.0,77,0.00,,,0.01,weatherlink.com 1.10,2013-09-01 22:45:00,
2013-09-01 19:00:00,81.5,74.0,29.75,WSW,257,1.0,5.0,78,0.00,,,0.01,weatherlink.com 1.10,2013-09-01 23:00:00,
2013-09-01 19:15:00,80.9,74.0,29.76,SW,218,1.0,4.0,80,0.00,,,0.01,weatherlink.com 1.10,2013-09-01 23:15:00,
2013-09-01 19:30:00,80.1,74.0,29.76,SW,228,0.0,3.0,82,0.00,,,0.01,weatherlink.com 1.10,2013-09-01 23:30:00,
2013-09-01 19:45:00,79.3,74.0,29.75,WSW,238,0.0,3.0,84,0.00,,,0.01,weatherlink.com 1.10,2013-09-01 23:45:00,
2013-09-01 20:00:00,78.6,74.0,29.75,SW,222,2.0,2.0,86,0.00,,,0.01,weatherlink.com 1.10,2013-09-02 00:00:00,
2013-09-01 20:15:00,78.0,74.0,29.76,SW,226,0.0,2.0,87,0.00,,,0.01,weatherlink.com 1.10,2013-09-02 00:15:00,
2013-09-01 20:30:00,77.2,74.0,29.76,SW,226,0.0,0.0,89,0.00,,,0.01,weatherlink.com 1.10,2013-09-02 00:30:00,
2013-09-01 20:45:00,76.5,74.0,29.76,SW,226,0.0,0.0,90,0.00,,,0.01,weatherlink.com 1.10,2013-09-02 00:45:00,
2013-09-01 21:00:00,76.4,74.0,29.77,SE,144,0.0,3.0,91,0.00,,,0.01,weatherlink.com 1.10,2013-09-02 01:00:00,
2013-09-01 21:15:00,75.9,74.0,29.77,SE,143,0.0,0.0,92,0.00,,,0.01,weatherlink.com 1.10,2013-09-02 01:15:00,
2013-09-01 21:30:00,75.4,73.0,29.77,SE,146,0.0,0.0,93,0.00,,,0.01,weatherlink.com 1.10,2013-09-02 01:30:00,
2013-09-01 21:45:00,75.0,73.0,29.77,SE,143,0.0,1.0,94,0.00,,,0.01,weatherlink.com 1.10,2013-09-02 01:45:00,
2013-09-01 22:00:00,74.8,73.0,29.77,SE,143,0.0,0.0,94,0.00,,,0.01,weatherlink.com 1.10,2013-09-02 02:00:00,
2013-09-01 22:15:00,74.8,73.0,29.78,WSW,248,0.0,0.0,94,0.00,,,0.01,weatherlink.com 1.10,2013-09-02 02:15:00,
2013-09-01 22:30:00,74.5,73.0,29.78,WSW,248,0.0,0.0,95,0.00,,,0.01,weatherlink.com 1.10,2013-09-02 02:30:00,
2013-09-01 22:45:00,74.2,73.0,29.77,WSW,248,0.0,0.0,95,0.00,,,0.01,weatherlink.com 1.10,2013-09-02 02:45:00,
2013-09-01 23:00:00,74.1,73.0,29.77,WSW,248,0.0,0.0,95,0.00,,,0.01,weatherlink.com 1.10,2013-09-02 03:00:00,
2013-09-01 23:15:00,73.9,73.0,29.78,WSW,246,0.0,0.0,96,0.00,,,0.01,weatherlink.com 1.10,2013-09-02 03:15:00,
2013-09-01 23:30:00,73.7,73.0,29.77,WSW,246,0.0,0.0,96,0.00,,,0.01,weatherlink.com 1.10,2013-09-02 03:30:00,
2013-09-01 23:45:00,73.5,72.0,29.77,WSW,246,0.0,0.0,96,0.00,,,0.01,weatherlink.com 1.10,2013-09-02 03:45:00,